Weather Roundup
Issued by NWS Chicago, IL

Home | Current Version | Previous Version | Graphics & Text | Print | Product List | Glossary On
Versions: 1 2 3 4 5 6 7 8 9 10 11 12 13 14 15 16 17 18 19 20 21 22 23 24 25 26 27 28 29 30 31 32 33 34 35 36 37 38 39 40 41 42 43 44 45 46 47 48 49 50
000
NZUS59 KLOT 261808
HRRLOT

CHICAGO AREA WEATHER ROUNDUP
NATIONAL WEATHER SERVICE CHICAGO/ROMEOVILLE IL
100 PM CDT MON SEP 26 2016

NOTE: "FAIR" INDICATES FEW OR NO CLOUDS BELOW 12,000 FEET WITH NO
SIGNIFICANT WEATHER AND/OR OBSTRUCTIONS TO VISIBILITY.

* THESE STATIONS ARE NOT UNDER NWS QUALITY CONTROL. THEY ALSO MAY NOT
  REPORT WEATHER SUCH AS PRECIPITATION OR FOG.

ILZ005-006-012>014-019>023-261900-
NORTHEAST ILLINOIS

CITY           SKY/WX    TMP DP  RH WIND       PRES   REMARKS
OHARE          MOSUNNY   67  35  30 W23G30    29.96F
6HR MIN TEMP:  58; 6HR MAX TEMP:  67;

MIDWAY         MOSUNNY   69  35  28 W21G30    29.97F
6HR MIN TEMP:  60; 6HR MAX TEMP:  70;

AURORA         SUNNY     69  35  28 W25G32    29.99F
6HR MIN TEMP:  56; 6HR MAX TEMP:  70;

LANSING*       SUNNY     69  42  38 W22G29    29.99F
JOLIET*        SUNNY     70  37  29 W17G26    30.00F
WAUKEGAN       SUNNY     65  38  36 W12G26    29.92F
6HR MIN TEMP:  57; 6HR MAX TEMP:  67;

DUPAGE AIRPORT SUNNY     68  36  30 W21G32    29.97F
6HR MIN TEMP:  56; 6HR MAX TEMP:  68;

WHEELING       SUNNY     66  35  31 W17G26    29.96F
6HR MIN TEMP:  58; 6HR MAX TEMP:  67;

KANKAKEE*      SUNNY     69  35  27 W16G30    30.02F
MORRIS*        SUNNY     70  35  28 W17G25    30.00S
LEWIS AIRPORT* SUNNY     69  43  39 W20G26    29.99F
NORTHERLY ISL    N/A     67  33  28 W12         N/A
$$

WIZ051-052-058>065-066-070>072-261900-
SOUTHEAST WISCONSIN

CITY           SKY/WX    TMP DP  RH WIND       PRES   REMARKS
MILWAUKEE      MOSUNNY   66  39  37 W21G31    29.90F
6HR MIN TEMP:  57; 6HR MAX TEMP:  66;

KENOSHA*       SUNNY     66  40  38 W23G35    29.92F
RACINE*        MOSUNNY   65  38  36 W20G30    29.92F
BURLINGTON     SUNNY     64  38  37 W17G26    29.92F
WAUKESHA       PTSUNNY   63  39  42 W16G31    29.91S
WEST BEND      PTSUNNY   63  36  36 W24G35    29.87S
$$

INZ001>003-010>013-019-020-261900-
NORTHWEST INDIANA

CITY           SKY/WX    TMP DP  RH WIND       PRES   REMARKS
GARY*          MOSUNNY   70  37  30 W25G39    29.99F
MICHIGAN CITY* NOT AVBL
RENSSELAER*    NOT AVBL
VALPARAISO     SUNNY     68  39  34 W20G30    29.99F
$$

LMZ740>746-261900-
SOUTHERN LAKE MICHIGAN

STATION/POSITION TIME  SKY/WX   TEMP WIND        PRES    VSBY
                                AIR  DIR/SP/G
                 (UTC)          (F)  (DEG/KT/KT) (MB)    (MI)
HARRISON CRIB    1700            64  270/ 23/ 28   N/A
BURNHAM HARBOR   1800            67  260/  7/ 20   N/A
CALUMET HARBOR   1700            67  250/ 11/ 22 1014.7F
BURNS HARBOR     1712            65  270/ 21/ 25 1015.2F
MICHIGAN CITY    1700            63  230/ 25/ 29   N/A
$$

ABBREVIATIONS USED IN REMARKS
   TC - TEMPERATURE IN CELSIUS
  WCI - WIND CHILL INDEX
   HX - HEAT INDEX
  VSB - VISIBILITY
$$




USA.gov is the U.S. government's official web portal to all federal, state and local government web resources and services.